Location: Dąbrowa Wronowska
(51.1605°N, 22.1145°E)
Time: 10:03:22
(UTC+02:00)

ISS - Visible Passes

Search period start: 28 May 2018 00:00
Search period end: 07 June 2018 00:00
Orbit: 402 x 407 km, 51.6° (Epoch: 28 May)

Date Brightness Start Highest point End Pass type
(mag) Time Alt. Az. Time Alt. Az. Time Alt. Az.
28 May -1.2 01:08:20 10° W 01:08:21 10° W 01:08:21 10° W visible
28 May -3.9 22:39:14 10° W 22:42:31 87° SSW 22:45:04 16° ESE visible
29 May -2.3 00:15:51 10° W 00:17:42 24° WSW 00:17:42 24° WSW visible
29 May -3.8 21:47:00 10° W 21:50:17 83° N 21:53:33 10° E visible
29 May -3.5 23:23:32 10° W 23:26:41 44° SSW 23:27:05 41° S visible
30 May -3.8 22:31:16 10° W 22:34:30 62° SSW 22:36:31 21° ESE visible
31 May -1.5 00:08:17 10° W 00:09:08 14° WSW 00:09:08 14° WSW visible
31 May -3.9 21:38:59 10° W 21:42:16 81° SSW 21:45:33 10° ESE visible
31 May -2.6 23:15:41 10° W 23:18:29 26° SSW 23:18:34 26° SSW visible
01 Jun -3.2 22:23:16 10° W 22:26:21 38° SSW 22:28:02 21° SSE visible
02 Jun -3.6 21:30:56 10° W 21:34:10 55° SSW 21:37:22 10° ESE visible
02 Jun -1.7 23:08:12 10° WSW 23:10:07 15° SW 23:10:09 15° SW visible
03 Jun -2.3 22:15:25 10° W 22:18:03 23° SW 22:19:40 16° S visible
04 Jun -2.8 21:22:55 10° W 21:25:55 34° SSW 21:28:54 10° SE visible
05 Jun -1.4 22:08:06 10° WSW 22:09:35 13° SW 22:11:04 10° SSW visible
